AAL514 KGJT-KJFK

Flight info

Callsign AAL514
Flight time 3h 31m
Altitude 35000
Route NOKXI2 HAQHY JNETT AKO HCT J60 DRABS/N0432F370 OVR KP69G CID ALPHE J70 SVM DAFLU J70 LVZ
Aircraft A320/M-SDE3FGHIRWY/LB1

Departure

Time 2026-05-05 00:55
Airport Grand Junction Regional Airport (KGJT)

Arrival

Time 2026-05-05 04:26
Airport John F. Kennedy International Airport (KJFK)
Time Latitude Longitude Altitude Speed Heading
2026-05-05 00:14 39.12336 -108.52909 4840 ft 0 kts 215°
2026-05-05 00:15 39.12338 -108.52907 4840 ft 0 kts 215°
2026-05-05 00:44 39.12348 -108.52898 4847 ft 4 kts 218°
2026-05-05 00:44 39.12368 -108.52875 4842 ft 4 kts 231°
2026-05-05 00:44 39.12382 -108.52846 4846 ft 4 kts 261°
2026-05-05 00:44 39.12380 -108.52822 4844 ft 1 kts 305°
2026-05-05 00:45 39.12378 -108.52818 4842 ft 0 kts 305°
2026-05-05 00:49 39.12378 -108.52819 4842 ft 1 kts 305°
2026-05-05 00:49 39.12384 -108.52830 4843 ft 4 kts 305°
2026-05-05 00:50 39.12413 -108.52881 4840 ft 10 kts 306°
2026-05-05 00:50 39.12464 -108.52972 4840 ft 15 kts 306°
2026-05-05 00:50 39.12524 -108.53066 4846 ft 14 kts 332°
2026-05-05 00:50 39.12620 -108.53085 4842 ft 16 kts 313°
2026-05-05 00:51 39.12693 -108.53212 4843 ft 18 kts 304°
2026-05-05 00:51 39.12766 -108.53344 4843 ft 18 kts 306°
2026-05-05 00:51 39.12837 -108.53477 4844 ft 18 kts 305°
2026-05-05 00:51 39.12910 -108.53611 4844 ft 18 kts 304°
2026-05-05 00:52 39.12984 -108.53748 4843 ft 19 kts 306°
2026-05-05 00:52 39.13063 -108.53891 4842 ft 22 kts 305°
2026-05-05 00:52 39.13160 -108.54070 4844 ft 27 kts 304°
2026-05-05 00:52 39.13280 -108.54274 4843 ft 29 kts 311°
2026-05-05 00:53 39.13357 -108.54418 4843 ft 11 kts 297°
2026-05-05 00:53 39.13413 -108.54482 4844 ft 10 kts 358°
2026-05-05 00:53 39.13451 -108.54459 4849 ft 2 kts 38°
2026-05-05 00:53 39.13452 -108.54458 4849 ft 0 kts 38°
2026-05-05 00:54 39.13465 -108.54445 4852 ft 5 kts 38°
2026-05-05 00:54 39.13470 -108.54374 4854 ft 15 kts 118°
2026-05-05 00:54 39.13307 -108.54088 4850 ft 73 kts 126°
2026-05-05 00:54 39.12897 -108.53347 4853 ft 127 kts 125°
2026-05-05 00:55 39.12303 -108.52290 5078 ft 149 kts 127°
2026-05-05 00:55 39.11724 -108.51265 5928 ft 140 kts 124°
2026-05-05 00:55 39.11239 -108.50212 6307 ft 151 kts 123°
2026-05-05 00:55 39.10691 -108.48998 6536 ft 161 kts 126°
2026-05-05 00:56 39.10080 -108.47707 6630 ft 180 kts 127°
2026-05-05 00:56 39.09359 -108.46258 6714 ft 201 kts 127°
2026-05-05 00:56 39.08532 -108.44662 6721 ft 231 kts 128°
2026-05-05 00:56 39.07563 -108.42867 6936 ft 254 kts 128°
2026-05-05 00:57 39.06341 -108.41140 7287 ft 268 kts 147°
2026-05-05 00:57 39.04588 -108.40195 7511 ft 281 kts 178°
2026-05-05 00:57 39.02608 -108.40336 7964 ft 291 kts 191°
2026-05-05 00:57 39.00647 -108.40755 8827 ft 285 kts 193°
2026-05-05 00:58 38.98674 -108.41162 9593 ft 292 kts 188°
2026-05-05 00:58 38.96649 -108.41148 10353 ft 296 kts 175°
2026-05-05 00:58 38.94612 -108.40315 10588 ft 321 kts 154°
2026-05-05 00:58 38.92787 -108.38480 10685 ft 349 kts 134°
2026-05-05 00:59 38.91484 -108.35778 11107 ft 363 kts 113°
2026-05-05 00:59 38.90750 -108.32657 11824 ft 365 kts 104°
2026-05-05 00:59 38.90192 -108.29457 12456 ft 371 kts 103°
2026-05-05 00:59 38.89677 -108.26195 13122 ft 373 kts 102°
2026-05-05 01:00 38.89049 -108.22990 13665 ft 379 kts 110°
2026-05-05 01:00 38.88050 -108.19851 14223 ft 380 kts 118°
2026-05-05 01:00 38.86830 -108.16855 14888 ft 381 kts 120°
2026-05-05 01:00 38.85603 -108.13870 15580 ft 380 kts 120°
2026-05-05 01:01 38.84351 -108.10833 15978 ft 386 kts 118°
2026-05-05 01:01 38.83482 -108.07554 16419 ft 395 kts 97°
2026-05-05 01:01 38.83601 -108.04015 16826 ft 401 kts 76°
2026-05-05 01:01 38.84587 -108.00666 17288 ft 405 kts 63°
2026-05-05 01:02 38.85814 -107.97443 18158 ft 397 kts 62°
2026-05-05 01:02 38.87000 -107.94303 18793 ft 393 kts 63°
2026-05-05 01:02 38.87988 -107.91530 21110 ft 328 kts 63°
2026-05-05 01:02 38.88957 -107.88748 20877 ft 357 kts 64°
2026-05-05 01:03 38.89974 -107.85728 20795 ft 377 kts 65°
2026-05-05 01:03 38.91003 -107.82574 20906 ft 390 kts 65°
2026-05-05 01:03 38.92068 -107.79301 21030 ft 404 kts 65°
2026-05-05 01:03 38.93175 -107.75921 21165 ft 416 kts 65°
2026-05-05 01:04 38.94300 -107.72516 21528 ft 422 kts 65°
2026-05-05 01:04 38.96641 -107.65521 22400 ft 430 kts 64°
2026-05-05 01:04 38.97830 -107.61984 22858 ft 433 kts 64°
2026-05-05 01:05 38.99026 -107.58417 23306 ft 436 kts 64°
2026-05-05 01:05 39.00226 -107.54825 23689 ft 439 kts 64°
2026-05-05 01:05 39.01433 -107.51207 24027 ft 442 kts 64°
2026-05-05 01:05 39.02651 -107.47551 24372 ft 446 kts 64°
2026-05-05 01:06 39.03875 -107.43871 24706 ft 450 kts 64°
2026-05-05 01:06 39.05092 -107.40205 25031 ft 453 kts 64°
2026-05-05 01:06 39.06332 -107.36462 25353 ft 456 kts 64°
2026-05-05 01:06 39.07579 -107.32692 25709 ft 460 kts 64°
2026-05-05 01:07 39.08836 -107.28895 26057 ft 463 kts 64°
2026-05-05 01:07 39.10104 -107.25068 26384 ft 466 kts 64°
2026-05-05 01:07 39.11381 -107.21218 26731 ft 469 kts 64°
2026-05-05 01:07 39.12662 -107.17343 27063 ft 472 kts 64°
2026-05-05 01:08 39.13947 -107.13444 27385 ft 475 kts 64°
2026-05-05 01:08 39.15220 -107.09566 27709 ft 478 kts 64°
2026-05-05 01:08 39.16517 -107.05610 28048 ft 481 kts 64°
2026-05-05 01:08 39.17819 -107.01637 28364 ft 483 kts 64°
2026-05-05 01:09 39.19131 -106.97633 28668 ft 486 kts 64°
2026-05-05 01:09 39.20447 -106.93606 28960 ft 489 kts 64°
2026-05-05 01:09 39.21771 -106.89553 29259 ft 491 kts 64°
2026-05-05 01:09 39.23100 -106.85487 29537 ft 494 kts 64°
2026-05-05 01:10 39.24436 -106.81395 29944 ft 494 kts 64°
2026-05-05 01:10 39.25750 -106.77358 30308 ft 495 kts 64°
2026-05-05 01:10 39.27077 -106.73273 30566 ft 498 kts 64°
2026-05-05 01:10 39.28419 -106.69134 30770 ft 502 kts 64°
2026-05-05 01:11 39.29765 -106.64966 30965 ft 505 kts 64°
2026-05-05 01:11 39.31116 -106.60774 31185 ft 508 kts 63°
2026-05-05 01:11 39.32478 -106.56547 31485 ft 511 kts 63°
2026-05-05 01:11 39.33846 -106.52293 31748 ft 514 kts 63°
2026-05-05 01:12 39.35195 -106.48068 31995 ft 518 kts 64°
2026-05-05 01:12 39.36491 -106.43707 32235 ft 522 kts 66°
2026-05-05 01:12 39.37698 -106.39256 32510 ft 526 kts 68°
2026-05-05 01:12 39.38836 -106.34744 32744 ft 530 kts 69°
2026-05-05 01:13 39.39943 -106.30191 32965 ft 533 kts 69°
2026-05-05 01:13 39.41057 -106.25598 33219 ft 536 kts 68°
2026-05-05 01:13 39.42195 -106.20999 33456 ft 538 kts 68°
2026-05-05 01:13 39.43367 -106.16387 33662 ft 541 kts 67°
2026-05-05 01:14 39.44562 -106.11766 33915 ft 543 kts 67°
2026-05-05 01:14 39.45754 -106.07189 34088 ft 545 kts 67°
2026-05-05 01:14 39.46965 -106.02529 34283 ft 547 kts 67°
2026-05-05 01:14 39.48172 -105.97852 34507 ft 548 kts 67°
2026-05-05 01:15 39.49372 -105.93165 34730 ft 550 kts 67°
2026-05-05 01:15 39.50568 -105.88464 34973 ft 551 kts 67°
2026-05-05 01:15 39.51765 -105.83748 35200 ft 552 kts 67°
2026-05-05 01:15 39.52960 -105.79024 35413 ft 553 kts 68°
2026-05-05 01:16 39.54158 -105.74281 35604 ft 554 kts 68°
2026-05-05 01:16 39.55340 -105.69598 35833 ft 555 kts 68°
2026-05-05 01:16 39.56536 -105.64838 36014 ft 556 kts 68°
2026-05-05 01:16 39.57731 -105.60066 36219 ft 556 kts 68°
2026-05-05 01:17 39.58926 -105.55288 36378 ft 558 kts 68°
2026-05-05 01:17 39.60124 -105.50503 36524 ft 560 kts 68°
2026-05-05 01:17 39.61328 -105.45697 36681 ft 561 kts 68°
2026-05-05 01:17 39.62534 -105.40876 36832 ft 563 kts 68°
2026-05-05 01:18 39.64965 -105.31134 36875 ft 571 kts 68°
2026-05-05 01:18 39.67382 -105.21380 36899 ft 572 kts 68°
2026-05-05 01:19 39.69804 -105.11540 36907 ft 572 kts 68°
2026-05-05 01:19 39.72228 -105.01693 36902 ft 572 kts 68°
2026-05-05 01:20 39.74650 -104.91838 36925 ft 573 kts 68°
2026-05-05 01:20 39.77056 -104.81976 36954 ft 573 kts 68°
2026-05-05 01:21 39.79433 -104.72160 36949 ft 573 kts 68°
2026-05-05 01:21 39.81815 -104.62267 36952 ft 573 kts 68°
2026-05-05 01:22 39.84193 -104.52377 36972 ft 573 kts 68°
2026-05-05 01:22 39.86573 -104.42483 36957 ft 573 kts 68°
2026-05-05 01:23 39.88922 -104.32651 36910 ft 573 kts 68°
2026-05-05 01:23 39.91276 -104.22749 36861 ft 572 kts 68°
2026-05-05 01:24 39.93622 -104.12844 36806 ft 572 kts 68°
2026-05-05 01:24 39.95958 -104.02927 36794 ft 572 kts 68°
2026-05-05 01:25 39.98276 -103.93017 36790 ft 572 kts 68°
2026-05-05 01:25 40.00588 -103.83090 36813 ft 572 kts 68°
2026-05-05 01:26 40.02897 -103.73167 36817 ft 571 kts 68°
2026-05-05 01:26 40.05193 -103.63315 36814 ft 571 kts 68°
2026-05-05 01:27 40.07488 -103.53398 36840 ft 571 kts 68°
2026-05-05 01:27 40.09761 -103.43473 36874 ft 570 kts 68°
2026-05-05 01:28 40.12025 -103.33555 36909 ft 569 kts 68°
2026-05-05 01:28 40.14265 -103.23712 36907 ft 569 kts 68°
2026-05-05 01:29 40.16184 -103.13664 36912 ft 573 kts 76°
2026-05-05 01:29 40.17618 -103.03428 36892 ft 572 kts 75°
2026-05-05 01:30 40.19052 -102.93273 36864 ft 571 kts 75°
2026-05-05 01:30 40.20487 -102.83074 36839 ft 570 kts 75°
2026-05-05 01:31 40.21899 -102.72881 36824 ft 569 kts 76°
2026-05-05 01:31 40.23305 -102.62696 36823 ft 568 kts 75°
2026-05-05 01:32 40.24703 -102.52535 36827 ft 567 kts 75°
2026-05-05 01:32 40.26072 -102.42451 36827 ft 566 kts 76°
2026-05-05 01:33 40.27443 -102.32314 36830 ft 565 kts 76°
2026-05-05 01:33 40.28803 -102.22188 36834 ft 564 kts 75°
2026-05-05 01:34 40.30157 -102.12073 36838 ft 563 kts 75°
2026-05-05 01:34 40.31499 -102.01966 36839 ft 563 kts 76°
2026-05-05 01:35 40.32816 -101.91939 36850 ft 561 kts 76°
2026-05-05 01:35 40.34129 -101.81862 36859 ft 560 kts 76°
2026-05-05 01:36 40.35431 -101.71802 36863 ft 559 kts 76°
2026-05-05 01:36 40.36723 -101.61757 36867 ft 558 kts 76°
2026-05-05 01:37 40.37994 -101.51802 36867 ft 557 kts 76°
2026-05-05 01:37 40.39268 -101.41788 36863 ft 556 kts 76°
2026-05-05 01:38 40.40530 -101.31799 36855 ft 554 kts 76°
2026-05-05 01:38 40.41783 -101.21825 36848 ft 553 kts 76°
2026-05-05 01:39 40.43012 -101.11931 36840 ft 553 kts 76°
2026-05-05 01:39 40.44237 -101.01976 36842 ft 552 kts 76°
2026-05-05 01:40 40.45438 -100.92139 36837 ft 551 kts 76°
2026-05-05 01:40 40.46698 -100.82215 36832 ft 550 kts 76°
2026-05-05 01:41 40.47999 -100.72323 36830 ft 549 kts 76°
2026-05-05 01:41 40.49287 -100.62504 36834 ft 549 kts 76°
2026-05-05 01:42 40.50563 -100.52615 36828 ft 548 kts 76°
2026-05-05 01:42 40.51815 -100.42742 36833 ft 548 kts 76°
2026-05-05 01:43 40.53057 -100.32871 36845 ft 547 kts 76°
2026-05-05 01:43 40.54282 -100.23074 36837 ft 547 kts 76°
2026-05-05 01:44 40.55513 -100.13216 36836 ft 546 kts 76°
2026-05-05 01:44 40.56737 -100.03370 36831 ft 545 kts 76°
2026-05-05 01:45 40.57948 -99.93517 36857 ft 545 kts 76°
2026-05-05 01:45 40.59133 -99.83739 36869 ft 545 kts 76°
2026-05-05 01:46 40.60323 -99.73903 36877 ft 544 kts 76°
2026-05-05 01:46 40.61502 -99.64074 36872 ft 543 kts 76°
2026-05-05 01:47 40.62681 -99.54250 36840 ft 543 kts 76°
2026-05-05 01:47 40.63843 -99.44425 36843 ft 543 kts 76°
2026-05-05 01:48 40.64980 -99.34672 36845 ft 543 kts 76°
2026-05-05 01:48 40.66122 -99.24856 36842 ft 542 kts 76°
2026-05-05 01:49 40.67256 -99.15035 36846 ft 542 kts 76°
2026-05-05 01:49 40.68383 -99.05214 36852 ft 542 kts 76°
2026-05-05 01:50 40.69501 -98.95456 36848 ft 542 kts 76°
2026-05-05 01:50 40.70606 -98.85635 36850 ft 542 kts 77°
2026-05-05 01:51 40.71696 -98.75805 36847 ft 542 kts 77°
2026-05-05 01:51 40.72790 -98.65986 36835 ft 541 kts 76°
2026-05-05 01:52 40.73870 -98.56225 36832 ft 541 kts 77°
2026-05-05 01:52 40.74946 -98.46404 36829 ft 541 kts 77°
2026-05-05 01:53 40.76022 -98.36586 36831 ft 540 kts 76°
2026-05-05 01:53 40.77434 -98.26890 36854 ft 536 kts 71°
2026-05-05 01:54 40.79167 -98.17404 36864 ft 535 kts 70°
2026-05-05 01:54 40.80886 -98.07841 36868 ft 536 kts 71°
2026-05-05 01:55 40.82447 -97.98316 36872 ft 537 kts 72°
2026-05-05 01:55 40.83970 -97.88675 36864 ft 537 kts 72°
2026-05-05 01:56 40.85509 -97.79031 36851 ft 536 kts 72°
2026-05-05 01:56 40.87054 -97.69460 36861 ft 536 kts 72°
2026-05-05 01:57 40.88608 -97.59824 36866 ft 536 kts 72°
2026-05-05 01:57 40.90158 -97.50187 36862 ft 536 kts 72°
2026-05-05 01:58 40.91679 -97.40537 36859 ft 536 kts 72°
2026-05-05 01:58 40.93194 -97.30889 36851 ft 536 kts 72°
2026-05-05 01:59 40.94701 -97.21318 36845 ft 535 kts 72°
2026-05-05 01:59 40.96203 -97.11684 36836 ft 534 kts 72°
2026-05-05 02:00 40.97680 -97.02056 36828 ft 534 kts 73°
2026-05-05 02:00 40.99161 -96.92438 36824 ft 533 kts 72°
2026-05-05 02:01 41.00628 -96.82882 36824 ft 533 kts 73°
2026-05-05 02:01 41.02087 -96.73266 36828 ft 533 kts 73°
2026-05-05 02:02 41.03543 -96.63660 36828 ft 532 kts 73°
2026-05-05 02:02 41.04983 -96.54046 36869 ft 531 kts 73°
2026-05-05 02:03 41.06413 -96.44446 36863 ft 531 kts 73°
2026-05-05 02:03 41.07823 -96.34915 36858 ft 530 kts 73°
2026-05-05 02:04 41.09241 -96.25325 36870 ft 530 kts 73°
2026-05-05 02:04 41.10652 -96.15727 36877 ft 530 kts 73°
2026-05-05 02:05 41.12053 -96.06139 36879 ft 529 kts 73°
2026-05-05 02:05 41.13438 -95.96627 36849 ft 529 kts 74°
2026-05-05 02:06 41.14816 -95.87050 36847 ft 528 kts 74°
2026-05-05 02:06 41.16182 -95.77476 36850 ft 528 kts 74°
2026-05-05 02:07 41.17648 -95.68025 36848 ft 525 kts 70°
2026-05-05 02:07 41.19540 -95.58707 36846 ft 522 kts 68°
2026-05-05 02:08 41.21551 -95.49455 36842 ft 521 kts 68°
2026-05-05 02:08 41.23440 -95.40156 36826 ft 522 kts 70°
2026-05-05 02:09 41.25221 -95.30883 36828 ft 521 kts 70°
2026-05-05 02:09 41.27010 -95.21549 36827 ft 520 kts 70°
2026-05-05 02:10 41.28821 -95.12248 36828 ft 520 kts 70°
2026-05-05 02:10 41.30637 -95.02955 36838 ft 519 kts 70°
2026-05-05 02:11 41.32424 -94.93723 36837 ft 518 kts 70°
2026-05-05 02:11 41.34198 -94.84436 36828 ft 518 kts 70°
2026-05-05 02:12 41.36850 -94.70520 36812 ft 517 kts 70°
2026-05-05 02:13 41.38607 -94.61247 36801 ft 516 kts 70°
2026-05-05 02:13 41.40344 -94.52047 36798 ft 516 kts 70°
2026-05-05 02:14 41.42080 -94.42783 36795 ft 515 kts 70°
2026-05-05 02:14 41.43805 -94.33533 36796 ft 514 kts 70°
2026-05-05 02:15 41.45530 -94.24292 36790 ft 513 kts 71°
2026-05-05 02:15 41.47228 -94.15122 36792 ft 513 kts 71°
2026-05-05 02:16 41.48927 -94.05898 36797 ft 512 kts 71°
2026-05-05 02:16 41.50616 -93.96680 36802 ft 511 kts 71°
2026-05-05 02:17 41.52318 -93.87481 36810 ft 510 kts 71°
2026-05-05 02:17 41.54020 -93.78294 36818 ft 510 kts 71°
2026-05-05 02:18 41.55694 -93.69168 36815 ft 509 kts 71°
2026-05-05 02:18 41.57363 -93.59983 36816 ft 509 kts 71°
2026-05-05 02:19 41.59027 -93.50804 36807 ft 508 kts 71°
2026-05-05 02:19 41.60686 -93.41629 36804 ft 508 kts 72°
2026-05-05 02:20 41.62320 -93.32513 36797 ft 508 kts 72°
2026-05-05 02:20 41.63963 -93.23343 36780 ft 507 kts 72°
2026-05-05 02:21 41.65593 -93.14182 36777 ft 507 kts 72°
2026-05-05 02:21 41.67212 -93.05014 36777 ft 506 kts 72°
2026-05-05 02:22 41.68823 -92.95841 36778 ft 506 kts 72°
2026-05-05 02:22 41.70416 -92.86746 36800 ft 505 kts 72°
2026-05-05 02:23 41.72017 -92.77593 36802 ft 505 kts 72°
2026-05-05 02:23 41.73602 -92.68449 36805 ft 504 kts 73°
2026-05-05 02:24 41.75186 -92.59303 36800 ft 504 kts 73°
2026-05-05 02:24 41.76746 -92.50230 36790 ft 503 kts 73°
2026-05-05 02:25 41.78263 -92.41336 36766 ft 502 kts 73°
2026-05-05 02:25 41.79814 -92.32211 36745 ft 502 kts 73°
2026-05-05 02:26 41.81359 -92.23078 36729 ft 502 kts 73°
2026-05-05 02:26 41.82889 -92.13940 36726 ft 502 kts 73°
2026-05-05 02:27 41.84404 -92.04865 36733 ft 502 kts 73°
2026-05-05 02:27 41.85924 -91.95721 36728 ft 502 kts 74°
2026-05-05 02:28 41.87435 -91.86571 36734 ft 502 kts 74°
2026-05-05 02:28 41.88912 -91.77415 36749 ft 503 kts 76°
2026-05-05 02:29 41.90045 -91.68196 36745 ft 504 kts 79°
2026-05-05 02:29 41.90936 -91.58850 36738 ft 505 kts 80°
2026-05-05 02:30 41.91836 -91.49510 36742 ft 505 kts 79°
2026-05-05 02:30 41.92809 -91.40182 36723 ft 504 kts 79°
2026-05-05 02:31 41.93792 -91.30922 36720 ft 504 kts 79°
2026-05-05 02:31 41.94762 -91.21594 36718 ft 504 kts 79°
2026-05-05 02:32 41.95713 -91.12261 36720 ft 504 kts 79°
2026-05-05 02:32 41.96658 -91.02931 36734 ft 504 kts 79°
2026-05-05 02:33 41.97600 -90.93601 36712 ft 504 kts 79°
2026-05-05 02:33 41.98527 -90.84341 36701 ft 503 kts 79°
2026-05-05 02:34 41.99450 -90.75018 36703 ft 503 kts 80°
2026-05-05 02:34 42.00360 -90.65706 36707 ft 502 kts 80°
2026-05-05 02:35 42.01264 -90.56398 36713 ft 502 kts 80°
2026-05-05 02:35 42.02153 -90.47154 36716 ft 501 kts 80°
2026-05-05 02:36 42.03044 -90.37865 36711 ft 501 kts 80°
2026-05-05 02:36 42.03926 -90.28576 36718 ft 500 kts 80°
2026-05-05 02:37 42.04792 -90.19299 36725 ft 500 kts 81°
2026-05-05 02:37 42.05648 -90.10093 36721 ft 499 kts 81°
2026-05-05 02:38 42.06505 -90.00822 36722 ft 499 kts 81°
2026-05-05 02:38 42.07352 -89.91569 36712 ft 498 kts 81°
2026-05-05 02:39 42.08188 -89.82313 36701 ft 498 kts 81°
2026-05-05 02:39 42.08880 -89.74627 36701 ft 498 kts 81°
2026-05-05 02:40 42.09834 -89.63951 36707 ft 498 kts 81°
2026-05-05 02:40 42.10649 -89.54697 36710 ft 498 kts 81°
2026-05-05 02:41 42.11456 -89.45439 36707 ft 498 kts 81°
2026-05-05 02:41 42.12119 -89.37749 36696 ft 497 kts 81°
2026-05-05 02:42 42.12912 -89.28500 36677 ft 497 kts 81°
2026-05-05 02:42 42.13828 -89.17766 36686 ft 496 kts 82°
2026-05-05 02:43 42.14481 -89.10020 36684 ft 496 kts 82°
2026-05-05 02:43 42.15243 -89.00853 36684 ft 496 kts 82°
2026-05-05 02:44 42.16003 -88.91610 36671 ft 495 kts 82°
2026-05-05 02:44 42.16754 -88.82388 36654 ft 495 kts 82°
2026-05-05 02:45 42.17610 -88.71684 36652 ft 494 kts 82°
2026-05-05 02:45 42.18228 -88.64037 36649 ft 494 kts 82°
2026-05-05 02:46 42.18965 -88.54837 36639 ft 493 kts 83°
2026-05-05 02:46 42.19679 -88.45633 36625 ft 493 kts 83°
2026-05-05 02:47 42.20389 -88.36438 36617 ft 493 kts 83°
2026-05-05 02:47 42.21083 -88.27313 36618 ft 492 kts 83°
2026-05-05 02:48 42.21782 -88.18131 36625 ft 492 kts 83°
2026-05-05 02:48 42.22476 -88.08960 36629 ft 491 kts 83°
2026-05-05 02:49 42.23158 -87.99798 36632 ft 491 kts 83°
2026-05-05 02:49 42.23833 -87.90693 36633 ft 491 kts 84°
2026-05-05 02:50 42.24500 -87.81529 36633 ft 491 kts 84°
2026-05-05 02:50 42.25155 -87.72366 36629 ft 491 kts 84°
2026-05-05 02:51 42.25806 -87.63196 36613 ft 491 kts 84°
2026-05-05 02:51 42.26450 -87.54087 36617 ft 491 kts 84°
2026-05-05 02:52 42.27086 -87.44911 36624 ft 491 kts 84°
2026-05-05 02:52 42.27712 -87.35727 36634 ft 492 kts 84°
2026-05-05 02:53 42.28336 -87.26533 36640 ft 492 kts 84°
2026-05-05 02:53 42.28946 -87.17388 36647 ft 492 kts 84°
2026-05-05 02:54 42.29563 -87.08174 36652 ft 493 kts 84°
2026-05-05 02:54 42.30168 -86.98984 36658 ft 493 kts 85°
2026-05-05 02:55 42.30760 -86.89747 36656 ft 493 kts 85°
2026-05-05 02:55 42.31353 -86.80517 36648 ft 493 kts 85°
2026-05-05 02:56 42.31937 -86.71338 36650 ft 493 kts 85°
2026-05-05 02:56 42.32507 -86.62107 36646 ft 493 kts 85°
2026-05-05 02:57 42.33063 -86.52862 36637 ft 493 kts 85°
2026-05-05 02:57 42.33622 -86.43632 36636 ft 493 kts 85°
2026-05-05 02:58 42.34178 -86.34461 36637 ft 493 kts 86°
2026-05-05 02:58 42.34727 -86.25239 36637 ft 492 kts 86°
2026-05-05 02:59 42.35261 -86.16012 36633 ft 492 kts 86°
2026-05-05 02:59 42.35785 -86.06791 36632 ft 492 kts 86°
2026-05-05 03:00 42.36304 -85.97642 36620 ft 491 kts 86°
2026-05-05 03:00 42.36819 -85.88433 36612 ft 491 kts 86°
2026-05-05 03:01 42.37324 -85.79217 36629 ft 491 kts 86°
2026-05-05 03:01 42.37819 -85.70006 36638 ft 491 kts 86°
2026-05-05 03:02 42.38310 -85.60859 36652 ft 491 kts 86°
2026-05-05 03:02 42.38797 -85.51644 36647 ft 491 kts 86°
2026-05-05 03:03 42.39274 -85.42432 36658 ft 491 kts 87°
2026-05-05 03:03 42.39736 -85.33223 36668 ft 491 kts 87°
2026-05-05 03:04 42.40187 -85.24073 36668 ft 491 kts 87°
2026-05-05 03:04 42.40647 -85.14871 36661 ft 490 kts 87°
2026-05-05 03:05 42.41099 -85.05670 36649 ft 490 kts 87°
2026-05-05 03:05 42.41539 -84.96461 36679 ft 490 kts 87°
2026-05-05 03:06 42.41967 -84.87311 36621 ft 491 kts 87°
2026-05-05 03:06 42.42387 -84.78096 36622 ft 491 kts 88°
2026-05-05 03:07 42.42793 -84.68877 36625 ft 491 kts 88°
2026-05-05 03:07 42.43204 -84.59657 36632 ft 491 kts 88°
2026-05-05 03:08 42.43557 -84.50504 36629 ft 490 kts 92°
2026-05-05 03:08 42.43324 -84.41304 36631 ft 489 kts 94°
2026-05-05 03:09 42.43091 -84.32106 36632 ft 489 kts 94°
2026-05-05 03:09 42.42850 -84.22981 36631 ft 489 kts 94°
2026-05-05 03:10 42.42587 -84.13773 36634 ft 489 kts 94°
2026-05-05 03:10 42.42309 -84.04632 36639 ft 489 kts 94°
2026-05-05 03:11 42.42026 -83.95437 36639 ft 489 kts 94°
2026-05-05 03:11 42.41744 -83.86234 36661 ft 489 kts 94°
2026-05-05 03:12 42.41459 -83.77030 36666 ft 489 kts 94°
2026-05-05 03:12 42.41164 -83.67899 36666 ft 489 kts 94°
2026-05-05 03:13 42.40844 -83.58698 36677 ft 489 kts 94°
2026-05-05 03:13 42.40543 -83.49505 36675 ft 489 kts 94°
2026-05-05 03:14 42.40286 -83.40311 36671 ft 489 kts 94°
2026-05-05 03:14 42.40019 -83.31189 36660 ft 488 kts 94°
2026-05-05 03:15 42.39719 -83.22009 36663 ft 488 kts 94°
2026-05-05 03:15 42.39408 -83.12832 36676 ft 488 kts 94°
2026-05-05 03:16 42.39097 -83.03653 36675 ft 488 kts 94°
2026-05-05 03:16 42.38783 -82.94535 36678 ft 489 kts 94°
2026-05-05 03:17 42.38461 -82.85359 36684 ft 489 kts 94°
2026-05-05 03:17 42.38127 -82.76175 36718 ft 489 kts 94°
2026-05-05 03:18 42.37780 -82.66996 36735 ft 489 kts 94°
2026-05-05 03:18 42.37429 -82.57809 36753 ft 489 kts 94°
2026-05-05 03:19 42.36891 -82.44103 36748 ft 489 kts 95°
2026-05-05 03:19 42.36518 -82.34928 36729 ft 489 kts 95°
2026-05-05 03:20 42.36137 -82.25754 36723 ft 488 kts 95°
2026-05-05 03:20 42.35758 -82.16652 36718 ft 488 kts 95°
2026-05-05 03:21 42.35373 -82.07484 36704 ft 488 kts 95°
2026-05-05 03:21 42.34971 -81.98322 36714 ft 488 kts 95°
2026-05-05 03:22 42.34568 -81.89167 36709 ft 488 kts 95°
2026-05-05 03:22 42.34158 -81.80016 36717 ft 488 kts 95°
2026-05-05 03:23 42.33742 -81.70939 36730 ft 487 kts 95°
2026-05-05 03:23 42.33314 -81.61804 36736 ft 487 kts 95°
2026-05-05 03:24 42.32889 -81.52780 36732 ft 486 kts 95°
2026-05-05 03:24 42.32453 -81.43651 36736 ft 486 kts 95°
2026-05-05 03:25 42.32011 -81.34597 36736 ft 486 kts 95°
2026-05-05 03:25 42.31562 -81.25480 36739 ft 486 kts 95°
2026-05-05 03:26 42.31104 -81.16365 36756 ft 486 kts 95°
2026-05-05 03:26 42.30630 -81.07252 36744 ft 486 kts 95°
2026-05-05 03:27 42.30164 -80.98198 36751 ft 486 kts 95°
2026-05-05 03:27 42.29687 -80.89084 36748 ft 486 kts 95°
2026-05-05 03:28 42.29199 -80.79982 36751 ft 486 kts 95°
2026-05-05 03:28 42.28702 -80.70885 36741 ft 485 kts 95°
2026-05-05 03:29 42.28203 -80.61867 36736 ft 485 kts 95°
2026-05-05 03:29 42.27695 -80.52791 36739 ft 484 kts 95°
2026-05-05 03:30 42.27183 -80.43728 36749 ft 484 kts 95°
2026-05-05 03:30 42.26659 -80.34659 36749 ft 484 kts 95°
2026-05-05 03:31 42.26129 -80.25668 36752 ft 483 kts 95°
2026-05-05 03:31 42.25594 -80.16629 36753 ft 483 kts 95°
2026-05-05 03:32 42.25054 -80.07605 36750 ft 482 kts 95°
2026-05-05 03:32 42.24502 -79.98586 36751 ft 482 kts 96°
2026-05-05 03:33 42.23947 -79.89646 36751 ft 482 kts 96°
2026-05-05 03:33 42.23381 -79.80639 36754 ft 481 kts 96°
2026-05-05 03:34 42.22815 -79.71647 36761 ft 481 kts 96°
2026-05-05 03:34 42.22238 -79.62664 36774 ft 481 kts 96°
2026-05-05 03:35 42.21658 -79.53740 36789 ft 480 kts 96°
2026-05-05 03:35 42.21073 -79.44771 36800 ft 480 kts 96°
2026-05-05 03:36 42.20474 -79.35806 36809 ft 480 kts 96°
2026-05-05 03:36 42.19869 -79.26845 36807 ft 480 kts 96°
2026-05-05 03:37 42.19268 -79.17940 36806 ft 480 kts 96°
2026-05-05 03:37 42.18120 -79.09131 36797 ft 476 kts 110°
2026-05-05 03:38 42.16008 -79.00671 36790 ft 476 kts 111°
2026-05-05 03:38 42.13898 -78.92209 36788 ft 476 kts 110°
2026-05-05 03:39 42.11805 -78.83874 36785 ft 477 kts 111°
2026-05-05 03:39 42.09673 -78.75422 36801 ft 477 kts 111°
2026-05-05 03:40 42.07535 -78.66971 36813 ft 477 kts 111°
2026-05-05 03:40 42.05411 -78.58568 36806 ft 477 kts 111°
2026-05-05 03:41 42.03267 -78.50111 36812 ft 478 kts 111°
2026-05-05 03:41 42.01108 -78.41657 36815 ft 478 kts 111°
2026-05-05 03:42 41.98941 -78.33207 36819 ft 478 kts 111°
2026-05-05 03:42 41.96784 -78.24821 36833 ft 478 kts 111°
2026-05-05 03:43 41.94607 -78.16382 36836 ft 478 kts 111°
2026-05-05 03:43 41.92421 -78.07951 36843 ft 478 kts 111°
2026-05-05 03:44 41.90226 -77.99523 36840 ft 478 kts 111°
2026-05-05 03:44 41.88043 -77.91158 36842 ft 478 kts 111°
2026-05-05 03:45 41.85843 -77.82747 36842 ft 478 kts 111°
2026-05-05 03:45 41.83626 -77.74344 36841 ft 478 kts 111°
2026-05-05 03:46 41.81411 -77.65948 36839 ft 478 kts 111°
2026-05-05 03:46 41.79210 -77.57611 36838 ft 478 kts 111°
2026-05-05 03:47 41.76989 -77.49224 36838 ft 478 kts 111°
2026-05-05 03:47 41.74757 -77.40834 36837 ft 478 kts 111°
2026-05-05 03:48 41.72520 -77.32469 36840 ft 477 kts 111°
2026-05-05 03:48 41.70278 -77.24118 36845 ft 477 kts 111°
2026-05-05 03:49 41.68030 -77.15776 36844 ft 476 kts 111°
2026-05-05 03:49 41.65793 -77.07505 36843 ft 476 kts 111°
2026-05-05 03:50 41.63537 -76.99198 36841 ft 475 kts 111°
2026-05-05 03:50 41.61282 -76.90892 36847 ft 475 kts 111°
2026-05-05 03:51 41.59031 -76.82601 36846 ft 475 kts 111°
2026-05-05 03:51 41.56781 -76.74369 36841 ft 475 kts 111°
2026-05-05 03:52 41.54507 -76.66091 36846 ft 475 kts 111°
2026-05-05 03:52 41.52235 -76.57818 36855 ft 475 kts 111°
2026-05-05 03:53 41.49954 -76.49550 36853 ft 475 kts 111°
2026-05-05 03:53 41.47700 -76.41409 36856 ft 475 kts 111°
2026-05-05 03:54 41.45404 -76.33157 36853 ft 475 kts 111°
2026-05-05 03:54 41.43097 -76.24886 36384 ft 479 kts 111°
2026-05-05 03:55 41.41926 -76.20688 35502 ft 484 kts 111°
2026-05-05 03:55 41.40761 -76.16531 35242 ft 475 kts 111°
2026-05-05 03:55 41.39610 -76.12440 34856 ft 470 kts 111°
2026-05-05 03:55 41.38467 -76.08382 34367 ft 467 kts 110°
2026-05-05 03:56 41.37341 -76.04390 33849 ft 466 kts 110°
2026-05-05 03:56 41.36203 -76.00360 33224 ft 465 kts 110°
2026-05-05 03:56 41.35065 -75.96334 32550 ft 465 kts 111°
2026-05-05 03:56 41.33924 -75.92296 31832 ft 466 kts 111°
2026-05-05 03:57 41.32782 -75.88259 31358 ft 466 kts 111°
2026-05-05 03:57 41.31635 -75.84220 30828 ft 467 kts 111°
2026-05-05 03:57 41.30487 -75.80181 30314 ft 468 kts 111°
2026-05-05 03:57 41.29335 -75.76134 29901 ft 468 kts 111°
2026-05-05 03:58 41.28195 -75.72144 29620 ft 469 kts 111°
2026-05-05 03:58 41.27047 -75.68082 29330 ft 469 kts 110°
2026-05-05 03:58 41.26000 -75.63975 29052 ft 470 kts 108°
2026-05-05 03:58 41.25054 -75.59808 28774 ft 471 kts 107°
2026-05-05 03:59 41.24172 -75.55616 28497 ft 472 kts 106°
2026-05-05 03:59 41.23303 -75.51407 28255 ft 472 kts 106°
2026-05-05 03:59 41.22421 -75.47209 27986 ft 473 kts 106°
2026-05-05 03:59 41.21510 -75.43008 27717 ft 473 kts 107°
2026-05-05 04:00 41.20574 -75.38816 27445 ft 474 kts 107°
2026-05-05 04:00 41.19621 -75.34630 27187 ft 474 kts 108°
2026-05-05 04:00 41.18672 -75.30493 26928 ft 475 kts 108°
2026-05-05 04:00 41.17707 -75.26299 26662 ft 475 kts 108°
2026-05-05 04:01 41.16757 -75.22156 26399 ft 462 kts 108°
2026-05-05 04:01 41.15840 -75.18133 26149 ft 449 kts 108°
2026-05-05 04:01 41.14952 -75.14217 25907 ft 438 kts 108°
2026-05-05 04:01 41.14082 -75.10371 25656 ft 433 kts 108°
2026-05-05 04:02 41.13214 -75.06550 25407 ft 431 kts 108°
2026-05-05 04:02 41.12346 -75.02757 25165 ft 429 kts 108°
2026-05-05 04:02 41.11477 -74.98974 24935 ft 428 kts 108°
2026-05-05 04:02 41.10611 -74.95208 24698 ft 426 kts 108°
2026-05-05 04:03 41.09761 -74.91505 24464 ft 425 kts 108°
2026-05-05 04:03 41.08899 -74.87764 24222 ft 424 kts 108°
2026-05-05 04:03 41.08037 -74.84039 23992 ft 422 kts 108°
2026-05-05 04:03 41.07172 -74.80327 23761 ft 421 kts 108°
2026-05-05 04:04 41.06305 -74.76625 23527 ft 420 kts 108°
2026-05-05 04:04 41.05444 -74.72937 23263 ft 418 kts 108°
2026-05-05 04:04 41.04590 -74.69259 22996 ft 417 kts 108°
2026-05-05 04:04 41.03743 -74.65595 22722 ft 415 kts 108°
2026-05-05 04:05 41.02907 -74.61992 22452 ft 414 kts 108°
2026-05-05 04:05 41.02057 -74.58363 22187 ft 412 kts 108°
2026-05-05 04:05 41.01208 -74.54736 21922 ft 411 kts 108°
2026-05-05 04:05 41.00364 -74.51125 21682 ft 410 kts 108°
2026-05-05 04:06 40.99519 -74.47529 21420 ft 409 kts 108°
2026-05-05 04:06 40.98677 -74.43939 21160 ft 407 kts 108°
2026-05-05 04:06 40.97837 -74.40368 20842 ft 407 kts 109°
2026-05-05 04:06 40.96996 -74.36803 20358 ft 405 kts 109°
2026-05-05 04:07 40.96170 -74.33302 19870 ft 403 kts 109°
2026-05-05 04:07 40.95337 -74.29776 19374 ft 401 kts 109°
2026-05-05 04:07 40.94603 -74.26679 18956 ft 399 kts 109°
2026-05-05 04:07 40.93773 -74.23192 18466 ft 397 kts 109°
2026-05-05 04:08 40.92946 -74.19718 17951 ft 395 kts 109°
2026-05-05 04:08 40.91971 -74.16359 17520 ft 387 kts 121°
2026-05-05 04:08 40.90475 -74.13452 17079 ft 379 kts 135°
2026-05-05 04:08 40.88614 -74.11246 16637 ft 370 kts 149°
2026-05-05 04:09 40.86540 -74.09545 16216 ft 364 kts 153°
2026-05-05 04:09 40.84388 -74.07823 15791 ft 360 kts 153°
2026-05-05 04:09 40.82257 -74.06114 15369 ft 357 kts 153°
2026-05-05 04:09 40.80318 -74.04559 14979 ft 354 kts 152°
2026-05-05 04:10 40.78222 -74.02874 14539 ft 352 kts 152°
2026-05-05 04:10 40.76161 -74.01152 14165 ft 351 kts 146°
2026-05-05 04:10 40.74389 -73.98941 13781 ft 353 kts 131°
2026-05-05 04:10 40.72904 -73.96382 13417 ft 348 kts 130°
2026-05-05 04:11 40.71447 -73.93866 13069 ft 343 kts 130°
2026-05-05 04:11 40.70007 -73.91394 12734 ft 338 kts 130°
2026-05-05 04:11 40.68597 -73.88988 12416 ft 334 kts 130°
2026-05-05 04:11 40.67183 -73.86577 12091 ft 330 kts 130°
2026-05-05 04:12 40.65906 -73.84320 11781 ft 328 kts 128°
2026-05-05 04:12 40.64618 -73.81860 11447 ft 325 kts 126°
2026-05-05 04:12 40.63372 -73.79382 11124 ft 323 kts 125°
2026-05-05 04:12 40.62152 -73.76921 10789 ft 320 kts 125°
2026-05-05 04:13 40.60934 -73.74474 10456 ft 318 kts 125°
2026-05-05 04:13 40.59735 -73.72086 10147 ft 316 kts 126°
2026-05-05 04:13 40.58523 -73.69693 9816 ft 314 kts 126°
2026-05-05 04:13 40.57314 -73.67319 9471 ft 311 kts 126°
2026-05-05 04:14 40.56114 -73.64968 9145 ft 308 kts 125°
2026-05-05 04:14 40.55249 -73.62421 8837 ft 307 kts 101°
2026-05-05 04:14 40.55272 -73.59658 8527 ft 302 kts 74°
2026-05-05 04:14 40.56171 -73.57211 8206 ft 296 kts 47°
2026-05-05 04:15 40.57689 -73.55448 7898 ft 291 kts 32°
2026-05-05 04:15 40.59330 -73.53884 7595 ft 291 kts 32°
2026-05-05 04:15 40.60946 -73.52348 7294 ft 290 kts 32°
2026-05-05 04:15 40.62578 -73.50799 6987 ft 289 kts 32°
2026-05-05 04:16 40.64222 -73.49290 6677 ft 286 kts 26°
2026-05-05 04:16 40.65956 -73.48040 6400 ft 283 kts 24°
2026-05-05 04:16 40.67672 -73.46807 6118 ft 280 kts 24°
2026-05-05 04:16 40.69383 -73.45601 5819 ft 277 kts 22°
2026-05-05 04:17 40.71081 -73.44492 5520 ft 266 kts 21°
2026-05-05 04:17 40.72709 -73.43466 5246 ft 253 kts 21°
2026-05-05 04:17 40.74299 -73.42786 4990 ft 237 kts
2026-05-05 04:17 40.75893 -73.42869 4818 ft 222 kts 340°
2026-05-05 04:18 40.77274 -73.43567 4823 ft 207 kts 324°
2026-05-05 04:18 40.78375 -73.44710 4502 ft 199 kts 307°
2026-05-05 04:18 40.79150 -73.46179 4133 ft 193 kts 296°
2026-05-05 04:18 40.79841 -73.47689 3869 ft 191 kts 296°
2026-05-05 04:19 40.80529 -73.49182 3774 ft 191 kts 296°
2026-05-05 04:19 40.81222 -73.50682 3686 ft 191 kts 296°
2026-05-05 04:19 40.81792 -73.52243 3594 ft 187 kts 282°
2026-05-05 04:19 40.81986 -73.53898 3509 ft 184 kts 267°
2026-05-05 04:20 40.81816 -73.55555 3427 ft 182 kts 252°
2026-05-05 04:20 40.81404 -73.57141 3342 ft 183 kts 250°
2026-05-05 04:20 40.80985 -73.58724 3259 ft 183 kts 251°
2026-05-05 04:20 40.80567 -73.60308 3178 ft 183 kts 251°
2026-05-05 04:21 40.80152 -73.61889 3099 ft 182 kts 250°
2026-05-05 04:21 40.79597 -73.63361 3010 ft 175 kts 232°
2026-05-05 04:21 40.78695 -73.64373 3016 ft 171 kts 215°
2026-05-05 04:21 40.77687 -73.65162 2941 ft 170 kts 214°
2026-05-05 04:22 40.76672 -73.65960 2757 ft 169 kts 214°
2026-05-05 04:22 40.75663 -73.66752 2549 ft 169 kts 214°
2026-05-05 04:22 40.74663 -73.67538 2334 ft 166 kts 214°
2026-05-05 04:22 40.73675 -73.68312 2114 ft 160 kts 214°
2026-05-05 04:23 40.72783 -73.69011 1909 ft 139 kts 214°
2026-05-05 04:23 40.71986 -73.69636 1745 ft 129 kts 214°
2026-05-05 04:23 40.71294 -73.70179 1585 ft 126 kts 213°
2026-05-05 04:23 40.70541 -73.70771 1408 ft 125 kts 213°
2026-05-05 04:24 40.69792 -73.71358 1250 ft 126 kts 212°
2026-05-05 04:24 40.69049 -73.71941 1076 ft 127 kts 212°
2026-05-05 04:24 40.68285 -73.72540 908 ft 128 kts 212°
2026-05-05 04:25 40.66718 -73.73767 564 ft 132 kts 209°
2026-05-05 04:25 40.65926 -73.74386 393 ft 132 kts 207°
2026-05-05 04:25 40.65133 -73.75007 211 ft 133 kts 207°
2026-05-05 04:25 40.64340 -73.75624 40 ft 132 kts 210°
2026-05-05 04:26 40.63636 -73.76173 19 ft 95 kts 212°
2026-05-05 04:26 40.63222 -73.76503 19 ft 33 kts 213°
2026-05-05 04:26 40.63061 -73.76646 18 ft 30 kts 222°
2026-05-05 04:26 40.62951 -73.76841 17 ft 20 kts 242°
2026-05-05 04:27 40.62964 -73.77049 16 ft 28 kts 301°
2026-05-05 04:27 40.63077 -73.77308 16 ft 37 kts 301°
2026-05-05 04:27 40.63216 -73.77618 18 ft 40 kts 302°
2026-05-05 04:27 40.63363 -73.77938 16 ft 42 kts 300°
2026-05-05 04:28 40.63514 -73.78278 16 ft 44 kts 301°
2026-05-05 04:28 40.63675 -73.78626 16 ft 45 kts 300°
2026-05-05 04:28 40.63838 -73.78985 16 ft 46 kts 301°
2026-05-05 04:28 40.63970 -73.79274 17 ft 23 kts 301°
2026-05-05 04:29 40.64051 -73.79446 16 ft 21 kts 311°
2026-05-05 04:29 40.64201 -73.79504 16 ft 26 kts
2026-05-05 04:29 40.64396 -73.79492 16 ft 30 kts 357°
2026-05-05 04:29 40.64578 -73.79518 16 ft 22 kts 340°
2026-05-05 04:30 40.64718 -73.79635 16 ft 26 kts 324°
2026-05-05 04:30 40.64836 -73.79706 16 ft 18 kts 356°
2026-05-05 04:30 40.64966 -73.79702 16 ft 13 kts
2026-05-05 04:30 40.65039 -73.79644 18 ft 13 kts 70°
2026-05-05 04:31 40.65044 -73.79502 16 ft 18 kts 78°
2026-05-05 04:31 40.65106 -73.79338 16 ft 23 kts 61°
2026-05-05 04:31 40.65140 -73.79240 16 ft 10 kts 82°
2026-05-05 04:31 40.65115 -73.79190 16 ft 5 kts 150°
2026-05-05 04:32 40.65102 -73.79181 16 ft 0 kts 151°